Location: Joussard
(55.3985°N, 115.9507°W)
Time: 08:55:59
(UTC+00:00)

BlueWalker 3 - Visible Passes

Search period start: 28 May 2023 00:00
Search period end: 07 June 2023 00:00
Orbit: 495 x 512 km, 53.2° (Epoch: 27 May)

Date Brightness Start Highest point End Pass type
(mag) Time Alt. Az. Time Alt. Az. Time Alt. Az.
28 May 2.7 06:01:30 10° SW 06:04:56 31° SSE 06:08:24 10° E visible
28 May 1.9 07:39:17 10° WSW 07:43:06 61° S 07:46:58 10° E visible
28 May 2.0 09:17:39 10° W 09:21:27 53° SSW 09:25:16 10° ESE visible
29 May 2.6 05:41:09 10° SW 05:44:36 31° SSE 05:48:04 10° E visible
29 May 1.9 07:18:57 10° WSW 07:22:47 61° S 07:26:38 10° E visible
29 May 2.0 08:57:19 10° W 09:01:07 53° SSW 09:04:56 10° ESE visible
30 May 2.6 05:20:48 10° SW 05:24:15 32° SSE 05:27:44 10° E visible
30 May 1.9 06:58:37 10° WSW 07:02:27 61° S 07:06:18 10° E visible
30 May 2.0 08:37:00 10° W 08:40:47 53° SSW 08:44:35 10° ESE visible
30 May 3.1 10:15:43 10° W 10:18:48 22° SW 10:21:53 10° SSE visible
31 May 1.9 06:38:16 10° WSW 06:42:06 62° S 06:45:57 10° E visible
31 May 2.0 08:16:39 10° W 08:20:26 52° SSW 08:24:15 10° ESE visible
31 May 3.1 09:55:24 10° W 09:58:27 22° SW 10:01:30 10° SSE visible
01 Jun 1.9 06:17:55 10° WSW 06:21:45 62° S 06:25:36 10° E visible
01 Jun 2.0 07:56:18 10° W 08:00:05 51° SSW 08:03:53 10° ESE visible
01 Jun 3.2 09:35:05 10° W 09:38:06 22° SW 09:41:07 10° SSE visible
02 Jun 1.9 05:57:34 10° WSW 06:01:23 62° S 06:05:14 10° E visible
02 Jun 2.1 07:35:58 10° W 07:39:44 51° SSW 07:43:31 10° ESE visible
02 Jun 3.2 09:14:45 10° W 09:17:43 21° SW 09:20:43 10° SSE visible
03 Jun 1.9 05:37:13 10° WSW 05:41:02 62° S 05:44:53 10° E visible
03 Jun 2.1 07:15:36 10° W 07:19:22 50° SSW 07:23:09 10° ESE visible
03 Jun 3.2 08:54:24 10° W 08:57:21 21° SW 08:59:41 13° S visible
04 Jun 2.0 05:16:51 10° WSW 05:20:40 62° S 05:24:30 10° E visible
04 Jun 2.1 06:55:14 10° W 06:58:59 50° SSW 07:02:47 10° ESE visible
04 Jun 3.3 08:34:03 10° W 08:36:59 20° SW 08:38:18 17° S visible
05 Jun 2.1 06:34:52 10° W 06:38:37 49° SSW 06:42:23 10° ESE visible
05 Jun 3.3 08:13:42 10° W 08:16:36 20° SW 08:17:34 18° SSW visible
06 Jun 2.2 06:14:30 10° W 06:18:14 49° SSW 06:22:00 10° ESE visible
06 Jun 3.4 07:53:21 10° W 07:56:12 20° SW 07:57:06 18° SSW visible
